User: anonymous
Location: Goheenville
(40.9070°N, 79.3720°W)
Time: 12:16:29
(UTC-04:00)
Language:

Cosmos 1633 - Orbit

View from above orbital plane
View from above orbital plane
View from above satellite
View from above satellite

Ground track
Ground track

The orbit data is extracted from the following two-line orbital elements,

1 15592U 85020A   14273.44968387  .00011763  00000-0  54865-3 0  5662
2 15592 082.5415 227.2491 0019316 068.6756 071.2332 15.19572163613260
Epoch (UTC): 30 September 2014 10:47:32
Eccentricity: 0.0019316
inclination: 82.5415°
perigee height: 494 km
apogee height: 520 km
right ascension of ascending node: 227.2491°
argument of perigee: 68.6756°
revolutions per day: 15.19572163
mean anomaly at epoch: 71.2332°
orbit number at epoch: 61326

The dashed part of the orbit path shows where the satellite is in the earth's shadow,  

DLR